FW3814 Weather Reports


time (UTC)temp
F
wind
direction
speed
knots
gust
knots
rain 1hr
in
rain 24hr
in
rain mn
in
humidity
%
barometer
mb
20260905222524 79 3 1.7 2.6 0.00 0.00 0.00 38 1018.7
20260905222003 79 13 1.7 5.2 0.00 0.00 0.00 37 1018.7
20260905221503 80 23 2.6 5.2 0.00 0.00 0.00 35 1018.8
20260905221003 80 12 3.5 3.5 0.00 0.00 0.00 35 1018.6
20260905220503 81 14 4.3 5.2 0.00 0.00 0.00 35 1018.6
20260905220004 81 21 3.5 7.0 0.00 0.00 0.00 35 1018.7
20260905215503 81 19 2.6 7.0 0.00 0.00 0.00 35 1018.7
20260905215003 81 22 1.7 5.2 0.00 0.00 0.00 35 1018.6
20260905214503 81 22 1.7 5.2 0.00 0.00 0.00 35 1018.6
20260905214003 81 22 0.9 2.6 0.00 0.00 0.00 35 1018.6
20260905213503 81 13 0.9 2.6 0.00 0.00 0.00 35 1018.6
20260905213024 81 11 1.7 4.3 0.00 0.00 0.00 35 1018.5
20260905212503 81 12 2.6 4.3 0.00 0.00 0.00 36 1018.4
20260905212003 81 17 1.7 4.3 0.00 0.00 0.00 36 1018.4
20260905211524 81 22 1.7 4.3 0.00 0.00 0.00 37 1018.5
20260905211003 81 30 1.7 4.3 0.00 0.00 0.00 37 1018.3
20260905210503 81 25 2.6 3.5 0.00 0.00 0.00 38 1018.1
20260905210003 80 19 2.6 4.3 0.00 0.00 0.00 39 1018.1
20260905205503 80 11 1.7 4.3 0.00 0.00 0.00 40 1018.1
20260905205024 80 13 2.6 3.5 0.00 0.00 0.00 40 1018.3
20260905204503 80 14 1.7 3.5 0.00 0.00 0.00 41 1018.1
20260905204024 80 11 1.7 3.5 0.00 0.00 0.00 41 1018.0
20260905203503 80 13 2.6 3.5 0.00 0.00 0.00 41 1017.9
20260905203003 80 9 1.7 3.5 0.00 0.00 0.00 42 1018.0
20260905202503 80 7 2.6 3.5 0.00 0.00 0.00 42 1018.0
20260905202003 80 9 2.6 3.5 0.00 0.00 0.00 43 1018.0
20260905201503 80 8 1.7 2.6 0.00 0.00 0.00 44 1018.0
20260905201003 80 2 1.7 2.6 0.00 0.00 0.00 44 1017.7
20260905200503 80 2 1.7 2.6 0.00 0.00 0.00 44 1018.0
20260905200003 80 9 0.9 2.6 0.00 0.00 0.00 44 1017.9
20260905195503 81 8 0.9 1.7 0.00 0.00 0.00 45 1017.8
20260905195024 81 3 0.9 1.7 0.00 0.00 0.00 45 1017.8
20260905194503 81 6 0.9 2.6 0.00 0.00 0.00 46 1017.8
20260905194003 81 13 0.9 2.6 0.00 0.00 0.00 47 1017.8
20260905193503 81 16 0.9 2.6 0.00 0.00 0.00 48 1017.6
20260905193003 82 3 0.0 2.6 0.00 0.00 0.00 45 1017.7
20260905192503 81 16 0.9 3.5 0.00 0.00 0.00 51 1017.6
20260905192024 81 16 1.7 3.5 0.00 0.00 0.00 52 1017.5
20260905191524 81 11 0.0 0.9 0.00 0.00 0.00 54 1017.5
20260905191003 81 348 0.0 0.9 0.00 0.00 0.00 56 1017.3
20260905190503 81 1 0.0 0.9 0.00 0.00 0.00 58 1017.3
20260905190003 80 22 0.9 3.5 0.00 0.00 0.00 60 1017.3
20260905185503 80 22 0.9 3.5 0.00 0.00 0.00 61 1017.2
20260905185003 80 0 0.0 0.0 0.00 0.00 0.00 60 1017.1
20260905184503 80 22 0.0 1.7 0.00 0.00 0.00 60 1017.2
20260905184003 80 22 0.0 1.7 0.00 0.00 0.00 61 1016.9
20260905183503 80 0 0.0 0.0 0.00 0.00 0.00 61 1016.9
20260905183003 80 0 0.0 0.0 0.00 0.00 0.00 62 1016.8
20260905182503 80 0 0.0 0.0 0.00 0.00 0.00 62 1016.7
20260905182003 80 0 0.0 0.0 0.00 0.00 0.00 61 1016.8
20260905181503 81 0 0.0 0.0 0.00 0.00 0.00 60 1016.6
20260905181003 81 0 0.0 0.0 0.00 0.00 0.00 60 1016.6
20260905180503 82 0 0.0 0.0 0.00 0.00 0.00 53 1016.6
20260905180024 82 0 0.0 0.0 0.00 0.00 0.00 53 1016.5
20260905175503 83 0 0.0 0.0 0.00 0.00 0.00 51 1016.6
20260905175003 83 0 0.0 0.0 0.00 0.00 0.00 51 1016.5
20260905174503 83 0 0.0 0.0 0.00 0.00 0.00 50 1016.5
20260905174003 83 0 0.0 0.0 0.00 0.00 0.00 51 1016.5
20260905173503 83 0 0.0 0.0 0.00 0.00 0.00 51 1016.4
20260905173024 83 0 0.0 0.0 0.00 0.00 0.00 52 1016.4
20260905172503 83 0 0.0 0.0 0.00 0.00 0.00 52 1016.2
20260905172003 84 0 0.0 0.0 0.00 0.00 0.00 53 1016.1
20260905171503 85 0 0.0 0.0 0.00 0.00 0.00 52 1016.2
20260905171024 85 0 0.0 0.0 0.00 0.00 0.00 52 1016.3
20260905170503 86 0 0.0 0.0 0.00 0.00 0.00 51 1016.3
20260905170003 87 0 0.0 0.0 0.00 0.00 0.00 51 1016.3
20260905165503 87 0 0.0 0.0 0.00 0.00 0.00 48 1016.2
20260905165003 87 0 0.0 0.0 0.00 0.00 0.00 47 1016.2
20260905164503 87 0 0.0 0.0 0.00 0.00 0.00 46 1016.2
20260905164003 87 0 0.0 0.0 0.00 0.00 0.00 46 1016.2
20260905163503 87 0 0.0 0.0 0.00 0.00 0.00 46 1016.2
20260905163003 87 0 0.0 0.0 0.00 0.00 0.00 46 1016.1
20260905162503 88 338 0.0 0.9 0.00 0.00 0.00 47 1016.1
20260905162003 88 338 0.0 0.9 0.00 0.00 0.00 46 1016.1
20260905161503 88 360 0.0 0.9 0.00 0.00 0.00 47 1016.1
20260905161003 88 360 0.0 0.9 0.00 0.00 0.00 46 1016.1
20260905160503 88 0 0.0 0.0 0.00 0.00 0.00 47 1016.2
20260905160003 88 0 0.0 0.0 0.00 0.00 0.00 47 1016.1
20260905155503 88 0 0.0 0.0 0.00 0.00 0.00 48 1016.2
20260905155003 88 0 0.0 0.0 0.00 0.00 0.00 49 1016.1
20260905154503 88 0 0.0 0.0 0.00 0.00 0.00 49 1016.0
20260905154003 87 0 0.0 0.0 0.00 0.00 0.00 48 1015.9
20260905153503 87 0 0.0 0.0 0.00 0.00 0.00 46 1015.9
20260905153003 88 0 0.0 0.0 0.00 0.00 0.00 45 1016.1
20260905152503 88 315 0.0 0.9 0.00 0.00 0.00 43 1016.1
20260905152003 88 315 0.0 0.9 0.00 0.00 0.00 42 1016.2
20260905151503 89 315 0.0 0.9 0.00 0.00 0.00 43 1016.1
20260905151003 89 315 0.0 0.9 0.00 0.00 0.00 42 1016.2
20260905150524 90 315 0.0 0.9 0.00 0.00 0.00 43 1016.2
20260905150003 90 315 0.0 0.9 0.00 0.00 0.00 43 1016.3
20260905145503 89 0 0.0 0.0 0.00 0.00 0.00 42 1016.2
20260905145024 89 315 0.0 0.9 0.00 0.00 0.00 42 1016.2
20260905144524 89 315 0.0 0.9 0.00 0.00 0.00 42 1016.2
20260905144003 89 329 0.0 3.5 0.00 0.00 0.00 42 1016.1
20260905143503 90 304 0.9 3.5 0.00 0.00 0.00 42 1016.1
20260905143003 90 304 0.9 4.3 0.00 0.00 0.00 41 1016.2
20260905142524 90 306 2.6 5.2 0.00 0.00 0.00 42 1016.2
20260905142003 90 304 3.5 5.2 0.00 0.00 0.00 41 1016.2
20260905141503 91 304 2.6 5.2 0.00 0.00 0.00 38 1016.3
20260905141003 91 294 0.9 3.5 0.00 0.00 0.00 38 1016.2
20260905140503 91 0 0.0 0.0 0.00 0.00 0.00 38 1016.2
20260905140004 91 315 0.0 0.9 0.00 0.00 0.00 38 1016.3
20260905135503 91 315 0.0 0.9 0.00 0.00 0.00 39 1016.3
20260905135003 91 315 0.0 0.9 0.00 0.00 0.00 38 1016.3
20260905134503 91 292 0.0 0.9 0.00 0.00 0.00 39 1016.3
20260905134003 91 301 0.0 0.9 0.00 0.00 0.00 40 1016.5
20260905133503 91 315 0.0 0.9 0.00 0.00 0.00 40 1016.4
20260905133003 91 274 0.0 3.5 0.00 0.00 0.00 40 1016.6
20260905132503 90 290 0.9 3.5 0.00 0.00 0.00 42 1016.7
20260905132003 90 288 0.9 3.5 0.00 0.00 0.00 42 1016.6
20260905131503 90 293 0.9 1.7 0.00 0.00 0.00 42 1016.6
20260905131024 90 303 0.9 1.7 0.00 0.00 0.00 42 1016.6
20260905130503 90 315 0.0 1.7 0.00 0.00 0.00 45 1016.8
20260905130003 90 315 0.0 1.7 0.00 0.00 0.00 45 1016.7
20260905125503 90 0 0.0 0.0 0.00 0.00 0.00 44 1016.8
20260905125003 89 0 0.0 0.0 0.00 0.00 0.00 44 1016.8
20260905124503 89 315 0.0 1.7 0.00 0.00 0.00 45 1016.9
20260905124003 89 321 0.9 1.7 0.00 0.00 0.00 45 1017.0
20260905123503 89 321 0.0 0.9 0.00 0.00 0.00 45 1017.0
20260905123003 89 307 0.9 1.7 0.00 0.00 0.00 45 1016.9
20260905122503 88 308 0.0 1.7 0.00 0.00 0.00 44 1016.9
20260905122003 89 315 0.0 0.9 0.00 0.00 0.00 45 1016.9
20260905121503 89 315 0.0 0.9 0.00 0.00 0.00 46 1017.0
20260905121024 89 315 0.0 0.9 0.00 0.00 0.00 47 1016.9
20260905120503 88 315 0.0 1.7 0.00 0.00 0.00 48 1016.9
20260905120024 88 332 0.9 3.5 0.00 0.00 0.00 48 1016.9
20260905115503 88 310 1.7 3.5 0.00 0.00 0.00 49 1016.9
20260905115003 87 305 2.6 4.3 0.00 0.00 0.00 48 1017.1
20260905114505 87 315 1.7 4.3 0.00 0.00 0.00 47 1017.1
20260905114026 88 315 0.0 2.6 0.00 0.00 0.00 48 1017.1
20260905113505 87 273 0.0 0.9 0.00 0.00 0.00 49 1017.2
20260905113005 87 247 0.0 0.9 0.00 0.00 0.00 48 1017.2
20260905112526 87 247 0.0 0.9 0.00 0.00 0.00 48 1017.1
20260905112005 87 315 0.0 0.9 0.00 0.00 0.00 48 1017.1
20260905111505 87 336 0.0 1.7 0.00 0.00 0.00 47 1017.4
20260905111005 87 78 0.0 1.7 0.00 0.00 0.00 47 1017.1
20260905110526 86 0 0.0 0.0 0.00 0.00 0.00 47 1017.3
20260905110005 86 315 0.0 0.9 0.00 0.00 0.00 47 1017.1
20260905105505 86 315 0.0 0.9 0.00 0.00 0.00 47 1017.2
20260905105026 85 315 0.0 0.9 0.00 0.00 0.00 47 1017.3
20260905104505 85 315 0.0 0.9 0.00 0.00 0.00 47 1017.3
20260905104005 85 287 0.9 3.5 0.00 0.00 0.00 47 1017.2
20260905103505 85 295 0.9 3.5 0.00 0.00 0.00 46 1017.3
20260905103005 85 306 2.6 7.8 0.00 0.00 0.00 48 1017.2
20260905102505 85 297 2.6 7.8 0.00 0.00 0.00 47 1017.2
20260905102005 85 298 1.7 7.8 0.00 0.00 0.00 48 1017.2
20260905101505 85 336 0.9 3.5 0.00 0.00 0.00 48 1017.2
20260905101005 85 0 0.0 0.0 0.00 0.00 0.00 49 1017.2
20260905100505 85 0 0.0 0.0 0.00 0.00 0.00 50 1017.2
20260905100005 85 315 0.0 0.9 0.00 0.00 0.00 50 1017.3
20260905095505 84 315 0.0 0.9 0.00 0.00 0.00 48 1017.3
20260905095005 84 0 0.0 0.0 0.00 0.00 0.00 50 1017.2
20260905094505 84 0 0.0 0.0 0.00 0.00 0.00 50 1017.3
20260905094005 84 0 0.0 0.0 0.00 0.00 0.00 50 1017.3
20260905093526 84 0 0.0 0.0 0.00 0.00 0.00 50 1017.3
20260905093005 83 0 0.0 0.0 0.00 0.00 0.00 50 1017.3
20260905092505 83 0 0.0 0.0 0.00 0.00 0.00 50 1017.3
20260905092005 83 0 0.0 0.0 0.00 0.00 0.00 51 1017.1
20260905091505 83 0 0.0 0.0 0.00 0.00 0.00 52 1017.2
20260905091026 83 0 0.0 0.0 0.00 0.00 0.00 53 1017.0
20260905090505 81 0 0.0 0.0 0.00 0.00 0.00 59 1017.0
20260905090026 81 0 0.0 0.0 0.00 0.00 0.00 59 1017.0
20260905085526 81 0 0.0 0.0 0.00 0.00 0.00 59 1017.1
20260905085005 80 0 0.0 0.0 0.00 0.00 0.00 60 1017.1
20260905084505 80 0 0.0 0.0 0.00 0.00 0.00 60 1017.2
20260905084005 79 0 0.0 0.0 0.00 0.00 0.00 61 1017.1
20260905083505 78 0 0.0 0.0 0.00 0.00 0.00 61 1017.0
20260905083005 78 0 0.0 0.0 0.00 0.00 0.00 62 1017.0
20260905082505 77 0 0.0 0.0 0.00 0.00 0.00 62 1016.9
20260905082026 77 0 0.0 0.0 0.00 0.00 0.00 61 1016.9
20260905081526 77 0 0.0 0.0 0.00 0.00 0.00 61 1017.0
20260905081026 77 0 0.0 0.0 0.00 0.00 0.00 61 1016.8
20260905080526 77 0 0.0 0.0 0.00 0.00 0.00 61 1016.8
20260905080005 77 0 0.0 0.0 0.00 0.00 0.00 61 1017.0
20260905075505 77 0 0.0 0.0 0.00 0.00 0.00 62 1016.7
20260905075005 77 0 0.0 0.0 0.00 0.00 0.00 62 1016.7
20260905074505 76 0 0.0 0.0 0.00 0.00 0.00 62 1016.7
20260905074005 76 0 0.0 0.0 0.00 0.00 0.00 63 1016.5
20260905073505 76 0 0.0 0.0 0.00 0.00 0.00 63 1016.6
20260905073005 75 0 0.0 0.0 0.00 0.00 0.00 64 1016.7
20260905072505 75 0 0.0 0.0 0.00 0.00 0.00 64 1016.6
20260905072026 75 0 0.0 0.0 0.00 0.00 0.00 64 1016.6
20260905071505 75 0 0.0 0.0 0.00 0.00 0.00 65 1016.6
20260905071005 75 0 0.0 0.0 0.00 0.00 0.00 65 1016.5
20260905070505 73 0 0.0 0.0 0.00 0.00 0.00 66 1016.5
20260905070005 73 0 0.0 0.0 0.00 0.00 0.00 66 1016.4
20260905065505 73 0 0.0 0.0 0.00 0.00 0.00 65 1016.5
20260905065005 73 0 0.0 0.0 0.00 0.00 0.00 65 1016.3
20260905064505 73 0 0.0 0.0 0.00 0.00 0.00 65 1016.5
20260905064026 72 0 0.0 0.0 0.00 0.00 0.00 64 1016.4
20260905063505 72 0 0.0 0.0 0.00 0.00 0.00 65 1016.4
20260905063026 73 0 0.0 0.0 0.00 0.00 0.00 65 1016.5
20260905062505 73 0 0.0 0.0 0.00 0.00 0.00 65 1016.3
20260905062005 73 0 0.0 0.0 0.00 0.00 0.00 65 1016.4
20260905061505 73 0 0.0 0.0 0.00 0.00 0.00 64 1016.3
20260905061005 73 0 0.0 0.0 0.00 0.00 0.00 65 1016.2
20260905060505 73 0 0.0 0.0 0.00 0.00 0.00 66 1016.1
20260905060005 73 0 0.0 0.0 0.00 0.00 0.00 66 1016.2
20260905055505 72 0 0.0 0.0 0.00 0.00 0.00 70 1016.1
20260905055005 72 0 0.0 0.0 0.00 0.00 0.00 70 1016.3
20260905054505 71 8 0.9 3.5 0.00 0.00 0.00 71 1016.1
20260905054026 70 11 2.6 3.5 0.00 0.00 0.00 72 1016.2
20260905053505 70 12 1.7 3.5 0.00 0.00 0.00 72 1016.1
20260905053005 69 360 0.9 2.6 0.00 0.00 0.00 72 1016.1
20260905052505 69 8 1.7 4.3 0.00 0.00 0.00 72 1016.0
20260905052026 69 11 3.5 4.3 0.00 0.00 0.00 72 1016.0
20260905051505 69 8 2.6 4.3 0.00 0.00 0.00 71 1015.9
20260905051005 69 348 1.7 3.5 0.00 0.00 0.00 70 1015.8
20260905050505 69 343 0.9 2.6 0.00 0.00 0.00 70 1015.9
20260905050005 69 350 0.9 2.6 0.00 0.00 0.00 69 1015.9
20260905045505 69 354 2.6 4.3 0.00 0.00 0.00 68 1015.7
20260905045026 70 1 2.6 4.3 0.00 0.00 0.00 68 1015.6
20260905044505 70 6 2.6 3.5 0.00 0.00 0.00 68 1015.6
20260905044026 70 11 1.7 3.5 0.00 0.00 0.00 68 1015.7
20260905043526 70 20 1.7 3.5 0.00 0.00 0.00 68 1015.6
20260905043005 70 26 1.7 3.5 0.00 0.00 0.00 68 1015.5
20260905042505 70 30 1.7 3.5 0.00 0.00 0.00 69 1015.2
20260905042026 70 30 1.7 5.2 0.00 0.00 0.00 69 1015.2
20260905041505 70 19 2.6 5.2 0.00 0.00 0.00 70 1015.5
20260905041005 70 17 1.7 4.3 0.00 0.00 0.00 70 1015.5
20260905040505 70 2 0.9 3.5 0.00 0.00 0.00 70 1015.5
20260905040026 70 1 0.9 3.5 0.00 0.00 0.00 70 1015.3
20260905035505 70 360 0.0 0.9 0.00 0.00 0.00 70 1015.5
20260905035005 70 0 0.0 0.0 0.00 0.00 0.00 69 1015.5
20260905034505 70 0 0.0 0.0 0.00 0.00 0.00 70 1015.5
20260905034026 70 60 0.0 1.7 0.00 0.00 0.00 70 1015.7
20260905033526 69 60 0.0 1.7 0.00 0.00 0.00 70 1015.5
20260905033005 70 0 0.0 0.0 0.00 0.00 0.00 69 1015.6
20260905032505 70 0 0.0 0.0 0.00 0.00 0.00 68 1015.7
20260905032005 70 0 0.0 0.0 0.00 0.00 0.00 67 1015.7
20260905031505 71 0 0.0 0.0 0.00 0.00 0.00 66 1015.6
20260905031005 71 14 0.9 3.5 0.00 0.00 0.00 66 1016.0
20260905030505 71 18 2.6 3.5 0.00 0.00 0.00 66 1016.0
20260905030005 71 13 2.6 3.5 0.00 0.00 0.00 67 1015.8
20260905025505 71 1 2.6 3.5 0.00 0.00 0.00 67 1015.7
20260905025005 71 353 1.7 3.5 0.00 0.00 0.00 67 1015.9
20260905024526 71 360 0.9 3.5 0.00 0.00 0.00 66 1015.8
20260905024026 71 352 1.7 3.5 0.00 0.00 0.00 66 1015.9
20260905023505 71 357 1.7 3.5 0.00 0.00 0.00 66 1015.9
20260905023005 71 9 2.6 3.5 0.00 0.00 0.00 65 1015.7
20260905022505 72 13 2.6 3.5 0.00 0.00 0.00 65 1015.8
20260905022005 72 2 1.7 3.5 0.00 0.00 0.00 65 1015.8
20260905021505 72 10 2.6 5.2 0.00 0.00 0.00 65 1015.7
20260905021005 72 56 4.3 5.2 0.00 0.00 0.00 65 1015.8
20260905020505 72 53 4.3 5.2 0.00 0.00 0.00 65 1015.7
20260905020005 72 17 3.5 5.2 0.00 0.00 0.00 65 1015.9
20260905015505 72 15 3.5 5.2 0.00 0.00 0.00 65 1016.0
20260905015026 72 20 3.5 5.2 0.00 0.00 0.00 65 1016.1
20260905014526 72 17 2.6 4.3 0.00 0.00 0.00 65 1016.0
20260905014005 72 7 2.6 3.5 0.00 0.00 0.00 64 1016.2
20260905013505 72 7 2.6 5.2 0.00 0.00 0.00 61 1016.1
20260905013005 72 23 2.6 5.2 0.00 0.00 0.00 61 1016.2
20260905012526 72 28 2.6 5.2 0.00 0.00 0.00 61 1016.1
20260905012026 72 33 0.9 3.5 0.00 0.00 0.00 61 1016.1
20260905011505 72 34 0.9 2.6 0.00 0.00 0.00 61 1016.4
20260905011005 72 37 0.9 2.6 0.00 0.00 0.00 61 1016.1
20260905010526 73 0 0.0 0.0 0.00 0.00 0.00 60 1016.2
20260905010005 73 0 0.0 0.0 0.00 0.00 0.00 60 1016.2
20260905005526 73 67 0.0 0.9 0.00 0.00 0.00 60 1016.2
20260905005005 73 39 0.0 0.9 0.00 0.00 0.00 60 1016.3
20260905004505 73 22 0.0 0.9 0.00 0.00 0.00 60 1016.2
20260905004005 74 39 0.0 0.9 0.00 0.00 0.00 60 1016.3
20260905003505 74 42 0.0 0.9 0.00 0.00 0.00 59 1016.3
20260905003005 73 22 0.0 0.9 0.00 0.00 0.00 58 1016.3
20260905002505 73 22 0.0 0.9 0.00 0.00 0.00 56 1016.6
20260905002005 72 0 0.0 0.0 0.00 0.00 0.00 57 1016.5
20260905001505 72 0 0.0 0.0 0.00 0.00 0.00 61 1016.6
20260905001005 72 0 0.0 0.0 0.00 0.00 0.00 61 1016.5
20260905000505 72 0 0.0 0.0 0.00 0.00 0.00 58 1016.5
20260905000005 72 0 0.0 0.0 0.00 0.00 0.00 58 1016.8
20260904235505 73 0 0.0 0.0 0.00 0.00 0.00 58 1016.8
20260904235026 73 0 0.0 0.0 0.00 0.00 0.00 57 1016.7
20260904234505 73 0 0.0 0.0 0.00 0.00 0.00 57 1016.5
20260904234005 73 0 0.0 0.0 0.00 0.00 0.00 56 1016.8
20260904233505 73 0 0.0 0.0 0.00 0.00 0.00 55 1016.8
20260904233005 73 0 0.0 0.0 0.00 0.00 0.00 53 1016.8
20260904232505 73 0 0.0 0.0 0.00 0.00 0.00 53 1016.8
20260904232026 73 0 0.0 0.0 0.00 0.00 0.00 53 1016.7
20260904231025 74 67 0.0 0.9 0.00 0.00 0.00 53 1016.7
20260904230525 74 67 0.0 0.9 0.00 0.00 0.00 52 1016.6
20260904230004 74 0 0.0 0.0 0.00 0.00 0.00 52 1016.8
20260904225504 74 0 0.0 0.0 0.00 0.00 0.00 51 1016.7
20260904225004 74 0 0.0 0.0 0.00 0.00 0.00 51 1016.8
20260904224504 73 0 0.0 0.0 0.00 0.00 0.00 51 1016.9
20260904224004 73 0 0.0 0.0 0.00 0.00 0.00 50 1016.8
20260904223504 74 0 0.0 0.0 0.00 0.00 0.00 50 1016.9
20260904223004 74 0 0.0 0.0 0.00 0.00 0.00 51 1017.0